Lid_Strength_Index
5 5 4 4 4 3 2 3 3 3 3 3 2 2 2 2 2 2 2 2 3 2 5 4 4 4 4 5 5 4 5 6 7 12 11 11 11 12 12 12 12 12 12
7 7 6 6 6 5 4 4 3 2 2 2 2 3 3 3 3 3 4 5 4 4 5 6 5 7 6 7 7 7 8 8 10 12 12 13 12 12 13 13 12 12 13
10 10 10 9 8 7 7 7 5 4 4 4 4 4 4 5 5 5 5 5 5 5 6 6 6 8 8 9 9 9 10 11 11 12 13 13 13 13 14 14 13 13 13
10 10 11 10 10 10 10 8 7 6 6 7 6 6 6 6 6 6 7 7 7 7 8 7 8 8 8 10 10 11 11 12 12 13 13 14 14 14 14 14 15 15 15
10 10 11 11 10 11 11 11 9 8 8 7 8 8 8 8 9 8 9 8 8 9 10 9 10 11 11 10 11 12 12 13 13 13 14 14 15 16 15 14 15 15 15
10 11 11 11 12 12 12 12 12 12 11 10 10 10 9 10 8 8 8 8 9 11 11 12 11 13 11 11 10 11 11 12 13 13 15 16 15 14 14 14 15 16 17
11 12 12 13 13 13 12 12 12 12 12 11 11 10 10 10 8 8 9 10 10 11 12 12 13 13 13 12 10 10 11 10 11 13 14 14 14 13 14 15 15 15 16
12 13 14 13 13 13 12 12 12 12 11 12 12 11 11 11 9 10 11 11 12 13 12 12 12 12 12 12 12 12 13 12 12 12 13 13 13 13 13 14 14 16 16
13 13 13 13 13 12 13 12 13 13 13 13 13 12 12 12 10 10 12 13 13 14 13 13 12 12 11 11 13 13 13 13 12 11 11 12 12 12 13 16 19 18 19
13 13 13 12 12 12 12 13 14 13 13 13 13 12 13 12 10 10 12 13 13 14 13 13 13 13 11 11 13 13 14 13 14 14 14 13 12 12 11 14 16 20 21
14 14 15 13 12 12 13 13 13 13 13 13 13 13 13 12 12 10 11 13 13 13 13 14 14 12 11 11 12 13 14 14 14 16 16 16 16 15 15 15 15 17 21
15 15 14 13 13 13 12 13 13 13 13 13 13 14 14 13 12 11 11 11 12 13 13 14 14 12 11 11 11 11 12 13 18 18 18 18 17 16 16 17 17 16 16
15 14 14 13 13 13 13 13 13 13 13 14 14 14 14 14 13 11 10 11 11 13 13 14 13 12 11 11 10 10 12 14 17 22 18 18 18 18 18 20 21 21 22
14 15 15 13 13 13 13 13 13 13 13 14 13 13 14 14 14 13 13 13 13 14 14 14 13 12 12 13 16 15 14 13 14 15 18 20 21 22 22 20 21 21 21
15 17 17 17 15 15 15 14 14 15 13 13 13 14 14 16 15 14 15 18 18 15 18 18 16 17 17 19 19 18 20 19 16 16 16 17 18 20 19 19 20 22 21
17 18 19 18 19 19 17 18 13 12 12 12 13 16 19 13 12 11 11 11 11 12 15 16 17 17 16 16 16 16 20 21 20 16 16 16 16 17 17 19 18 20 19
17 19 19 19 20 20 22 19 19 19 13 13 13 13 12 12 12 12 12 11 11 12 14 14 15 15 15 16 16 16 17 19 20 20 19 17 17 17 17 17 18 18 18
20 20 19 21 22 22 22 23 22 21 23 23 18 15 14 13 13 12 12 15 20 14 15 15 15 14 14 15 16 16 16 18 18 17 16 16 16 17 17 18 17 17 17
20 21 21 22 22 22 22 22 23 23 24 26 24 19 22 15 15 16 16 20 18 17 16 16 16 15 15 15 14 18 18 16 16 18 18 17 17 18 18 17 17 17 17
22 22 21 21 22 23 24 23 24 25 26 27 26 28 28 25 26 27 28 24 24 24 24 22 21 20 20 20 19 19 19 19 20 21 19 19 19 18 18 17 17 17 16
21 22 23 23 24 26 26 27 27 28 28 30 32 26 20 30 33 33 32 31 33 33 31 31 30 29 28 27 27 25 24 23 22 20 20 20 18 18 17 16 16 16 16
23 24 24 25 26 26 27 28 28 28 30 31 34 31 23 32 34 36 36 36 36 36 36 35 33 32 30 30 29 27 26 25 24 24 22 19 18 17 17 16 18 16 16
23 25 26 28 27 28 29 30 29 29 30 34 35 34 36 37 37 37 38 38 37 36 36 35 35 34 33 32 31 30 28 26 25 22 21 19 19 19 19 16 16 18 17
25 26 27 28 29 29 30 32 32 32 33 35 36 34 35 38 38 38 38 37 36 34 34 34 34 33 33 32 32 32 32 28 26 25 24 21 20 20 20 18 17 18 18
27 27 28 30 29 31 31 32 33 34 36 35 37 36 37 36 36 37 37 37 35 33 33 34 34 34 34 31 30 30 27 23 24 23 27 25 24 23 21 21 19 21 22
28 29 30 31 32 32 33 32 32 33 35 36 37 37 35 35 36 36 36 35 32 32 33 33 33 31 32 32 29 25 22 17 18 17 16 22 23 22 23 23 24 23 22